ASTROCAST-0205 (48960 NORAD) Tracking and Keplerian Element Data

This shows tracking and keplerian element data for the satellite.

Feedback or suggestion? Click here.




ElementValue
Catalog48960
NameASTROCAST-0205
Epoch Orbit515
Epoch Day210.86251217
Epoch Year2021
RAAN339.282
Inclination97.5164
Eccentricity0.0016717
Argument of Perigee128.6946
Mean Anonmoly231.5784
Mean Motion15.14341373
Decay Rate1.06E-05
L11 48960U 21059CK 21210.86251217 .00001060 00000-0 61284-4 0 9994
L22 48960 97.5164 339.2820 0016717 128.6946 231.5784 15.14341373 5159

Live tracking and technical data element details for ASTROCAST-0205 (NORAD 48960). ASTROCAST-0205 can be tracked NOW for your location showing map with azimuth and elevation plus other details from your city location.

Track the satellite on the map from your city or location and see movement details for azimuth, elevation, latitude, longitude, range, height, and movement on the map or in text.







IsCatalogInMostPopularTable: catalog: 48960, numindb: 1
Update: records affected: 1



GetName: 48960 ASTROCAST-0205

Hit Count: updated at: Sat, 31 Jul 2021 14:58:29 GMT